Regional Weather Roundup
Issued by NWS Portland, ME

Current Version | Previous Version | Text Only | Print | Product List | Glossary Off
Versions: 1 2 3 4 5 6 7 8 9 10 11 12 13 14 15 16 17 18 19 20 21 22 23 24 25 26 27 28 29 30 31 32 33 34 35 36 37 38 39 40 41 42 43 44 45 46 47 48 49 50
000 ASUS41 KGYX 171005 RWRGYX WEATHER ROUNDUP FOR MAINE AND NEW HAMPSHIRE NATIONAL WEATHER SERVICE GRAY ME 500 AM EST SUN DEC 17 2017 MEZ002-005-006-010-012-015-018-020-021-024-026-027-029-171100- MAINE CITY SKY/WX TMP DP RH WIND PRES REMARKS PORTLAND CLEAR 7 4 87 W3 30.19R SANFORD CLEAR -4 -7 87 CALM 30.19R BAR HARBOR CLEAR 14 5 67 NW7 30.15R WISCASSET PTCLDY 5 2 87 CALM 30.19R FRYEBURG CLEAR -5 -8 87 CALM 30.15R LEWISTONAUBURN CLEAR 1 -3 83 CALM 30.17R AUGUSTA CLEAR 12 4 70 NW6 30.15S WATERVILLE CLEAR 6 0 76 CALM 30.11R BANGOR CLEAR 5 3 91 W3 30.15S GREENVILLE N/A 7 0 73 NW17G25 30.00S WCI -12 MILLINOCKET PTCLDY 10 1 67 W12G20 30.10R WCI -5 HOULTON CLEAR -1 -4 87 W6 30.05F PRESQUE ISLE CLOUDY -2 -8 76 CALM 30.07S FRENCHVILLE CLOUDY -1 -8 72 NW16 29.98S WCI -21 CARIBOU CLOUDY 2 -6 69 VRB3 30.04R $$ NHZ002-005-008-009-011-012-014-171100- NEW HAMPSHIRE CITY SKY/WX TMP DP RH WIND PRES REMARKS PORTSMOUTH CLEAR 15 6 69 W5 30.19R ROCHESTER PTCLDY 12 6 77 SW5 30.17R NASHUA PTCLDY 5 2 87 NW3 30.24R MANCHESTER PTCLDY 14 5 67 NW3 30.22R CONCORD PTCLDY 2 -2 83 CALM 30.22R LACONIA PTCLDY 11 4 73 W8 30.18R PLYMOUTH FAIR 11 5 75 N3 30.19S BERLIN MOCLDY -2 -5 87 N3 30.13S WHITEFIELD CLOUDY -8 -12 83 CALM 30.16S JAFFREY CLOUDY 0 -5 79 CALM 30.16R KEENE PTCLDY -1 -6 79 CALM 30.25R LEBANON PTCLDY -5 -9 83 CALM 30.23R MT WASHINGTON CLEAR -6 -18 54 NW48 N/A WCI -39 $$ VTZ005-007-008-171100- VERMONT CITY SKY/WX TMP DP RH WIND PRES REMARKS ST JOHNSBURY N/A -3 -6 87 MISG 30.20S MONTPELIER CLOUDY -4 -5 95 CALM 30.21R BURLINGTON CLOUDY 4 -1 80 CALM 30.27R $$ MAZ007-012-024-CTZ003-RIZ002-NYZ038-NYZ072-171100- SOUTHERN NEW ENGLAND AND NY CITY SKY/WX TMP DP RH WIND PRES REMARKS BOSTON CLEAR 21 9 59 W14 30.23R WCI 8 WORCESTER CLOUDY 14 2 58 W10 30.17R WCI 1 NANTUCKET CLEAR 26 15 63 NW12 30.22R WCI 16 PROVIDENCE CLEAR 19 12 74 W3 30.25R HARTFORD PTCLDY 14 10 84 W7 30.28R ALBANY PTCLDY 10 5 80 CALM 30.29R NEW YORK CITY CLOUDY 34 21 59 N7 30.27R $$ ANZ081-ANZ082-ANZ150-NHZ014-MEZ023>029-171100- COASTAL MARINE OBSERVATIONS STATION/POSITION TIME TEMP WIND PRES WAVE AIR SEA DIR/SP/G HT/PER (UTC) (F) (DEG/KT/KT) (MB) (FT/S) MOUNT DESERT ROC 1000 23 310/ 24/ 28 1020.4R MATINICUS ROCK 0900 23 320/ 15/ 18 1020.4R ISLE OF SHOALS 0900 19 280/ 14/ 17 1021.9R JEFFREYS LEDGE 0936 47 N/A 3/ 4 GEORGES BANK BUO 0850 35 50 1018.1 11/10 $$ .............KEY.............. WCI - WIND CHILL TC - TEMPERATURE IN CELSIUS VSB - VISIBILITY IN MILES HX - HEAT INDEX FAIR- INDICATES FEW OR NO CLOUDS BELOW 12,000 FT, WITH NO SIGNIFICANT WEATHER AND/OR OBSTRUCTIONS TO VISIBILITY.

USA.gov is the U.S. government's official web portal to all federal, state and local government web resources and services.